Simultaneous Nadir Overpasses (SNOs) Predictions

Prediction of SNOs between AURA and NPP Satellite Orbit:

Table of predicted SNOs for the next 14.0 days since TLE Epoch: 9/15/2018
Index Date (AURA) Time (AURA) Lat,Lon (AURA) SZA (AURA ) Date (NPP) Time (NPP) Lat,Lon (NPP) SZA (NPP ) Distance(km) Time Diff (sec)
1 09/16/2018 19:08:37 -79.23, -32.18 89.84 09/16/2018 19:08:16 -79.24, -32.06 89.85 2.52 21
2 09/16/2018 19:57:58 79.43, 136.73 89.91 09/16/2018 19:58:55 79.42, 136.66 89.88 1.38 57
3 09/19/2018 10:35:43 78.99, -85.40 91.45 09/19/2018 10:34:33 78.99, -85.41 91.51 0.13 70
4 09/19/2018 11:25:01 -79.36, 84.50 89.04 09/19/2018 11:25:08 -79.36, 84.63 89.07 2.64 7
5 09/22/2018 02:52:08 79.11, 31.19 92.27 09/22/2018 02:51:26 79.12, 31.23 92.30 0.85 42
6 09/22/2018 03:41:27 -79.43,-159.09 88.17 09/22/2018 03:42:02 -79.44,-158.94 88.22 3.18 35
7 09/24/2018 19:08:33 79.23, 147.78 93.10 09/24/2018 19:08:19 79.23, 147.88 93.09 2.25 14
8 09/24/2018 19:57:55 -79.43, -43.22 87.18 09/24/2018 19:58:59 -79.43, -43.32 87.21 2.19 64
9 09/27/2018 10:35:41 -78.99, 94.60 85.62 09/27/2018 10:34:38 -78.99, 94.59 85.57 0.07 63




NCC Satellite Simultaneous Nadir Overpasses (SNOs) Prediction Service
